Location: Newark
(49.3000°N, 9.4667°E)
Time: 02:43:53
(UTC+00:00)

Transit 4A - Pass Details

Date: 03 June 2019
Orbit: 862 x 983 km, 66.8° (Epoch: 15 June)

Event Time Altitude Azimuth Distance (km) Brightness Sun altitude
Rises 22:08:16 0° 313° (NW) 3,694 12.1 -16.6°
Reaches altitude 10° 22:11:47 10° 295° (WNW) 2,733 10.9 -16.7°
Maximum altitude 22:15:39 17° 257° (WSW) 2,249 9.9 -16.9°
Drops below altitude 10° 22:19:28 10° 220° (SW) 2,690 10.0 -17.1°
Enters shadow 22:19:47 - 217° (SW) 2,762 10.0 -17.1°
